Location: ??
(35.5990°N, 139.7298°E)
Time: 14:28:59
(UTC+00:00)

Abrixas rocket - Pass Details

Date: 07 June 2020
Orbit: 342 x 347 km, 48.4° (Epoch: 12 July)

Event Time Altitude Azimuth Distance (km) Brightness Sun altitude
Rises 10:56:04 0° 306° (NW) 2,160 8.1 -11.1°
Reaches altitude 10° 10:58:06 10° 305° (NW) 1,314 6.3 -11.5°
Maximum altitude 11:01:02 80° 217° (SW) 359 1.8 -11.9°
Enters shadow 11:02:40 23° 133° (SE) 790 3.0 -12.2°
